sat.trackr.live / text

‹ back to catalog

ETV-A1

NORAD 51060 · 2022-002CE

PAYLOAD ACTIVE UNKNOWN

§ Identity

Operator
Country
UK
Launch date
2022-01-13
Launch site
AFETR
Launch vehicle
Mass (kg)
RCS (m²)

External: N2YO · Heavens-Above · Gunter

§ Orbital elements

Epoch: 2026-09-20T22:49:46.714368Z

Period
93.36 min
Inclination
97.2782°
Eccentricity
0.0004892
Mean motion
15.42463401 rev/d
Perigee alt
435.5 km
Apogee alt
442.2 km
Semi-major
6,817.0 km
B*
1.9140e-4
RAAN
330.0495°
Arg perigee
17.2626°
Mean anomaly
342.8787°
Rev number
26,059

§ Raw data

ETV-A11 51060U 22002CE  26263.95123512  .00008202  00000+0  19140-3 0  99942 51060  97.2782 330.0495 0004892  17.2626 342.8787 15.42463401260591

JSON: /api/v1/satellites/51060 · /tle

For live sub-satellite position, see the globe view (requires WebGL).

§ Visibility from observer

Set your observer location to see the next 7 days of passes ≥ 10°. The values pass through the URL so the page stays shareable.

No JS? Fill the form by hand. The geolocation button needs JavaScript.

§ Radio — SatNOGS DB

ModeDescriptionDownlinkUplink
BPSK S-band telemetry 2.225 GHz
BPSK S-band telemetry 2.211 GHz
BPSK UHF Unknown 401.050 MHz

3 transmitters · refreshed weekly from db.satnogs.org